GIA242 WIII-WAHS

Flight info

Callsign GIA242
Flight time 0h 44m
Altitude 25000
Route CA2A CA CA1E
Aircraft B738/M-VGDW/C

Departure

Time 2026-05-08 06:42
Airport Soekarno-Hatta International Airport (WIII)

Arrival

Time 2026-05-08 07:26
Airport Jenderal Ahmad Yani Airport (WAHS)
Time Latitude Longitude Altitude Speed Heading
2026-05-08 06:22 -6.11672 106.66676 37 ft 0 kts 156°
2026-05-08 06:31 -6.11671 106.66675 37 ft 2 kts 156°
2026-05-08 06:31 -6.11647 106.66666 35 ft 4 kts 160°
2026-05-08 06:32 -6.11621 106.66657 33 ft 4 kts 165°
2026-05-08 06:32 -6.11595 106.66652 35 ft 4 kts 174°
2026-05-08 06:32 -6.11569 106.66652 36 ft 4 kts 205°
2026-05-08 06:32 -6.11558 106.66661 32 ft 0 kts 247°
2026-05-08 06:35 -6.11567 106.66638 34 ft 9 kts 248°
2026-05-08 06:35 -6.11595 106.66572 37 ft 11 kts 248°
2026-05-08 06:35 -6.11622 106.66502 37 ft 11 kts 249°
2026-05-08 06:35 -6.11642 106.66433 37 ft 10 kts 268°
2026-05-08 06:36 -6.11591 106.66383 37 ft 12 kts 339°
2026-05-08 06:36 -6.11507 106.66352 37 ft 14 kts 339°
2026-05-08 06:36 -6.11411 106.66313 37 ft 15 kts 338°
2026-05-08 06:36 -6.11349 106.66242 37 ft 15 kts 260°
2026-05-08 06:37 -6.11385 106.66145 37 ft 16 kts 249°
2026-05-08 06:37 -6.11431 106.66030 36 ft 20 kts 248°
2026-05-08 06:37 -6.11487 106.65888 34 ft 24 kts 249°
2026-05-08 06:37 -6.11553 106.65725 36 ft 27 kts 248°
2026-05-08 06:38 -6.11623 106.65550 36 ft 27 kts 248°
2026-05-08 06:38 -6.11689 106.65382 37 ft 25 kts 248°
2026-05-08 06:38 -6.11751 106.65226 37 ft 23 kts 248°
2026-05-08 06:38 -6.11810 106.65079 37 ft 22 kts 248°
2026-05-08 06:39 -6.11867 106.64935 37 ft 22 kts 248°
2026-05-08 06:39 -6.11923 106.64796 37 ft 21 kts 248°
2026-05-08 06:39 -6.11978 106.64659 38 ft 22 kts 247°
2026-05-08 06:39 -6.12037 106.64509 37 ft 24 kts 248°
2026-05-08 06:40 -6.12101 106.64350 37 ft 25 kts 248°
2026-05-08 06:40 -6.12162 106.64196 36 ft 23 kts 248°
2026-05-08 06:40 -6.12221 106.64050 37 ft 22 kts 248°
2026-05-08 06:40 -6.12243 106.63907 37 ft 22 kts 312°
2026-05-08 06:41 -6.12150 106.63888 37 ft 21 kts 19°
2026-05-08 06:41 -6.12064 106.63953 37 ft 16 kts 68°
2026-05-08 06:41 -6.11976 106.64173 37 ft 65 kts 69°
2026-05-08 06:41 -6.11722 106.64812 40 ft 129 kts 68°
2026-05-08 06:42 -6.11335 106.65796 231 ft 159 kts 66°
2026-05-08 06:42 -6.10942 106.66820 863 ft 160 kts 66°
2026-05-08 06:42 -6.10522 106.67897 1427 ft 166 kts 67°
2026-05-08 06:42 -6.10102 106.68997 1975 ft 175 kts 66°
2026-05-08 06:43 -6.09636 106.70196 2339 ft 192 kts 69°
2026-05-08 06:43 -6.09148 106.71491 2788 ft 205 kts 70°
2026-05-08 06:43 -6.08462 106.72808 3035 ft 226 kts 50°
2026-05-08 06:43 -6.07180 106.73849 3210 ft 249 kts 35°
2026-05-08 06:44 -6.05685 106.74882 3480 ft 269 kts 38°
2026-05-08 06:44 -6.04206 106.76051 4100 ft 272 kts 40°
2026-05-08 06:44 -6.02723 106.77266 4768 ft 276 kts 40°
2026-05-08 06:44 -6.01228 106.78499 5441 ft 278 kts 40°
2026-05-08 06:45 -5.99730 106.79734 6160 ft 280 kts 42°
2026-05-08 06:45 -5.98473 106.81206 6779 ft 279 kts 67°
2026-05-08 06:45 -5.97930 106.83070 7459 ft 279 kts 82°
2026-05-08 06:45 -5.98057 106.84973 8069 ft 280 kts 109°
2026-05-08 06:46 -5.98764 106.86797 8817 ft 280 kts 113°
2026-05-08 06:46 -5.99526 106.88626 9416 ft 288 kts 113°
2026-05-08 06:46 -6.00309 106.90477 10112 ft 290 kts 113°
2026-05-08 06:46 -6.01121 106.92392 10408 ft 309 kts 113°
2026-05-08 06:47 -6.01985 106.94430 10705 ft 324 kts 113°
2026-05-08 06:47 -6.02876 106.96534 11324 ft 327 kts 113°
2026-05-08 06:47 -6.03770 106.98648 11988 ft 330 kts 113°
2026-05-08 06:47 -6.04675 107.00789 12611 ft 334 kts 113°
2026-05-08 06:48 -6.05588 107.02953 13235 ft 339 kts 113°
2026-05-08 06:48 -6.06512 107.05143 13925 ft 340 kts 113°
2026-05-08 06:48 -6.07430 107.07320 14485 ft 345 kts 113°
2026-05-08 06:48 -6.08372 107.09555 15100 ft 349 kts 113°
2026-05-08 06:49 -6.09325 107.11817 15683 ft 353 kts 114°
2026-05-08 06:49 -6.10285 107.14095 16314 ft 356 kts 114°
2026-05-08 06:49 -6.11253 107.16392 16920 ft 359 kts 114°
2026-05-08 06:49 -6.12229 107.18711 17516 ft 362 kts 114°
2026-05-08 06:50 -6.13217 107.21057 18105 ft 365 kts 114°
2026-05-08 06:50 -6.14213 107.23422 18602 ft 369 kts 114°
2026-05-08 06:50 -6.15218 107.25808 19086 ft 372 kts 113°
2026-05-08 06:50 -6.16232 107.28218 19598 ft 375 kts 113°
2026-05-08 06:51 -6.17253 107.30644 20097 ft 378 kts 113°
2026-05-08 06:51 -6.18280 107.33085 20581 ft 382 kts 113°
2026-05-08 06:51 -6.19309 107.35531 20961 ft 387 kts 112°
2026-05-08 06:51 -6.20362 107.38034 21425 ft 391 kts 112°
2026-05-08 06:52 -6.21423 107.40556 21945 ft 392 kts 112°
2026-05-08 06:52 -6.22483 107.43078 22534 ft 391 kts 112°
2026-05-08 06:52 -6.23540 107.45591 23144 ft 390 kts 112°
2026-05-08 06:52 -6.24596 107.48103 23669 ft 390 kts 112°
2026-05-08 06:53 -6.25652 107.50615 24148 ft 390 kts 112°
2026-05-08 06:53 -6.26706 107.53123 24655 ft 389 kts 112°
2026-05-08 06:53 -6.27763 107.55637 24769 ft 389 kts 112°
2026-05-08 06:53 -6.28814 107.58138 24804 ft 387 kts 112°
2026-05-08 06:54 -6.29866 107.60641 24801 ft 389 kts 112°
2026-05-08 06:54 -6.30919 107.63151 24809 ft 390 kts 112°
2026-05-08 06:54 -6.31977 107.65668 24811 ft 390 kts 112°
2026-05-08 06:54 -6.33032 107.68182 24811 ft 391 kts 112°
2026-05-08 06:55 -6.34089 107.70700 24809 ft 391 kts 112°
2026-05-08 06:55 -6.35147 107.73220 24807 ft 391 kts 112°
2026-05-08 06:55 -6.36194 107.75713 24803 ft 391 kts 112°
2026-05-08 06:55 -6.37249 107.78227 24803 ft 390 kts 112°
2026-05-08 06:56 -6.38303 107.80739 24815 ft 389 kts 112°
2026-05-08 06:56 -6.39355 107.83248 24808 ft 389 kts 112°
2026-05-08 06:56 -6.40406 107.85752 24804 ft 388 kts 112°
2026-05-08 06:56 -6.41453 107.88249 24808 ft 387 kts 112°
2026-05-08 06:57 -6.42498 107.90742 24804 ft 387 kts 112°
2026-05-08 06:57 -6.43544 107.93236 24805 ft 386 kts 112°
2026-05-08 06:57 -6.44590 107.95732 24800 ft 386 kts 112°
2026-05-08 06:57 -6.45621 107.98192 24798 ft 386 kts 112°
2026-05-08 06:58 -6.46664 108.00682 24803 ft 386 kts 112°
2026-05-08 06:58 -6.47708 108.03172 24804 ft 387 kts 112°
2026-05-08 06:58 -6.48754 108.05669 24802 ft 387 kts 112°
2026-05-08 06:58 -6.49799 108.08164 24800 ft 387 kts 112°
2026-05-08 06:59 -6.50844 108.10661 24797 ft 388 kts 112°
2026-05-08 06:59 -6.51891 108.13159 24800 ft 388 kts 112°
2026-05-08 06:59 -6.52940 108.15665 24804 ft 389 kts 112°
2026-05-08 06:59 -6.53988 108.18171 24804 ft 389 kts 112°
2026-05-08 07:00 -6.55040 108.20684 24799 ft 390 kts 112°
2026-05-08 07:00 -6.56092 108.23198 24802 ft 390 kts 112°
2026-05-08 07:00 -6.57143 108.25710 24805 ft 390 kts 112°
2026-05-08 07:00 -6.58195 108.28225 24803 ft 390 kts 112°
2026-05-08 07:01 -6.59250 108.30746 24801 ft 390 kts 112°
2026-05-08 07:01 -6.60290 108.33233 24798 ft 390 kts 112°
2026-05-08 07:01 -6.61340 108.35746 24798 ft 390 kts 112°
2026-05-08 07:01 -6.62391 108.38259 24801 ft 389 kts 112°
2026-05-08 07:02 -6.63439 108.40766 24802 ft 389 kts 112°
2026-05-08 07:02 -6.64489 108.43280 24816 ft 389 kts 112°
2026-05-08 07:02 -6.65538 108.45792 24812 ft 389 kts 112°
2026-05-08 07:02 -6.66586 108.48302 24813 ft 389 kts 112°
2026-05-08 07:03 -6.67632 108.50805 24815 ft 388 kts 112°
2026-05-08 07:03 -6.68680 108.53315 24815 ft 388 kts 112°
2026-05-08 07:03 -6.69712 108.55821 24809 ft 388 kts 109°
2026-05-08 07:03 -6.70369 108.58408 24812 ft 386 kts 99°
2026-05-08 07:04 -6.70796 108.61075 24807 ft 387 kts 98°
2026-05-08 07:04 -6.71176 108.63761 24809 ft 387 kts 97°
2026-05-08 07:04 -6.71554 108.66440 24807 ft 387 kts 98°
2026-05-08 07:04 -6.71945 108.69114 24807 ft 387 kts 98°
2026-05-08 07:05 -6.72348 108.71768 24790 ft 378 kts 98°
2026-05-08 07:05 -6.72753 108.74364 24794 ft 374 kts 98°
2026-05-08 07:05 -6.73156 108.76912 24781 ft 363 kts 98°
2026-05-08 07:05 -6.73549 108.79376 24783 ft 350 kts 98°
2026-05-08 07:06 -6.73929 108.81749 24781 ft 337 kts 98°
2026-05-08 07:06 -6.74295 108.84034 24775 ft 324 kts 98°
2026-05-08 07:06 -6.74645 108.86225 24784 ft 311 kts 98°
2026-05-08 07:06 -6.74979 108.88309 24781 ft 300 kts 98°
2026-05-08 07:07 -6.75305 108.90353 24787 ft 295 kts 98°
2026-05-08 07:07 -6.75636 108.92429 24816 ft 306 kts 98°
2026-05-08 07:07 -6.75980 108.94580 24826 ft 315 kts 98°
2026-05-08 07:07 -6.76328 108.96767 24809 ft 316 kts 98°
2026-05-08 07:08 -6.76674 108.98933 24794 ft 311 kts 98°
2026-05-08 07:08 -6.77016 109.01071 24791 ft 308 kts 98°
2026-05-08 07:08 -6.77356 109.03201 24805 ft 309 kts 98°
2026-05-08 07:08 -6.77696 109.05336 24805 ft 309 kts 98°
2026-05-08 07:09 -6.78037 109.07475 24801 ft 310 kts 98°
2026-05-08 07:09 -6.78379 109.09619 24800 ft 311 kts 98°
2026-05-08 07:09 -6.78722 109.11770 24803 ft 311 kts 98°
2026-05-08 07:09 -6.79063 109.13916 24810 ft 311 kts 98°
2026-05-08 07:10 -6.79382 109.16074 24801 ft 312 kts 97°
2026-05-08 07:10 -6.79683 109.18208 24795 ft 312 kts 97°
2026-05-08 07:10 -6.79984 109.20367 24802 ft 312 kts 97°
2026-05-08 07:10 -6.80286 109.22527 24803 ft 311 kts 97°
2026-05-08 07:11 -6.80588 109.24684 24794 ft 311 kts 97°
2026-05-08 07:11 -6.80890 109.26841 24787 ft 311 kts 97°
2026-05-08 07:11 -6.81193 109.28992 24794 ft 311 kts 97°
2026-05-08 07:11 -6.81496 109.31146 24796 ft 310 kts 97°
2026-05-08 07:12 -6.81798 109.33294 24793 ft 310 kts 97°
2026-05-08 07:12 -6.82100 109.35438 24792 ft 310 kts 97°
2026-05-08 07:12 -6.82403 109.37584 24796 ft 309 kts 97°
2026-05-08 07:12 -6.82704 109.39724 24754 ft 307 kts 97°
2026-05-08 07:13 -6.83003 109.41841 24507 ft 305 kts 97°
2026-05-08 07:13 -6.83306 109.43993 23704 ft 318 kts 97°
2026-05-08 07:13 -6.83627 109.46281 22430 ft 342 kts 98°
2026-05-08 07:13 -6.83963 109.48670 21466 ft 353 kts 98°
2026-05-08 07:14 -6.84307 109.51113 20838 ft 352 kts 98°
2026-05-08 07:14 -6.84647 109.53534 20360 ft 346 kts 99°
2026-05-08 07:14 -6.84981 109.55910 19899 ft 340 kts 99°
2026-05-08 07:14 -6.85312 109.58265 19326 ft 339 kts 99°
2026-05-08 07:15 -6.85642 109.60609 18753 ft 338 kts 99°
2026-05-08 07:15 -6.85969 109.62944 18257 ft 335 kts 99°
2026-05-08 07:15 -6.86294 109.65253 17728 ft 332 kts 99°
2026-05-08 07:15 -6.86615 109.67542 17161 ft 329 kts 99°
2026-05-08 07:16 -6.86933 109.69806 16629 ft 326 kts 99°
2026-05-08 07:16 -6.87247 109.72049 16182 ft 320 kts 99°
2026-05-08 07:16 -6.87553 109.74236 15894 ft 311 kts 99°
2026-05-08 07:16 -6.87853 109.76373 15491 ft 305 kts 99°
2026-05-08 07:17 -6.88148 109.78479 15043 ft 303 kts 99°
2026-05-08 07:17 -6.88442 109.80572 14594 ft 300 kts 99°
2026-05-08 07:17 -6.88733 109.82648 14111 ft 300 kts 99°
2026-05-08 07:17 -6.89023 109.84721 13651 ft 298 kts 99°
2026-05-08 07:18 -6.89311 109.86779 13183 ft 295 kts 99°
2026-05-08 07:18 -6.89488 109.88822 12702 ft 293 kts 87°
2026-05-08 07:18 -6.89186 109.90873 11992 ft 300 kts 80°
2026-05-08 07:18 -6.88773 109.92950 11280 ft 305 kts 79°
2026-05-08 07:19 -6.88354 109.95030 10633 ft 308 kts 80°
2026-05-08 07:19 -6.87939 109.97128 9981 ft 309 kts 80°
2026-05-08 07:19 -6.87524 109.99276 9196 ft 314 kts 80°
2026-05-08 07:19 -6.87111 110.01448 8384 ft 317 kts 80°
2026-05-08 07:20 -6.86700 110.03640 7592 ft 320 kts 80°
2026-05-08 07:20 -6.86289 110.05844 6813 ft 321 kts 81°
2026-05-08 07:20 -6.85879 110.08052 6040 ft 321 kts 81°
2026-05-08 07:20 -6.85468 110.10266 5237 ft 321 kts 81°
2026-05-08 07:21 -6.85058 110.12475 4467 ft 321 kts 81°
2026-05-08 07:21 -6.84665 110.14594 4270 ft 301 kts 81°
2026-05-08 07:21 -6.84292 110.16600 4134 ft 282 kts 81°
2026-05-08 07:21 -6.83943 110.18476 4016 ft 264 kts 81°
2026-05-08 07:22 -6.83776 110.20250 3814 ft 249 kts 99°
2026-05-08 07:22 -6.84473 110.21805 3457 ft 243 kts 128°
2026-05-08 07:22 -6.85552 110.23097 3121 ft 239 kts 129°
2026-05-08 07:22 -6.86595 110.24376 2816 ft 234 kts 128°
2026-05-08 07:23 -6.87601 110.25619 2545 ft 224 kts 128°
2026-05-08 07:23 -6.88565 110.26809 2247 ft 214 kts 128°
2026-05-08 07:23 -6.89479 110.27935 1974 ft 201 kts 129°
2026-05-08 07:23 -6.90341 110.28996 1732 ft 191 kts 128°
2026-05-08 07:24 -6.91151 110.29996 1492 ft 177 kts 128°
2026-05-08 07:24 -6.91896 110.30916 1284 ft 164 kts 128°
2026-05-08 07:24 -6.92611 110.31798 1073 ft 161 kts 128°
2026-05-08 07:24 -6.93305 110.32652 879 ft 160 kts 128°
2026-05-08 07:25 -6.93990 110.33530 657 ft 158 kts 124°
2026-05-08 07:25 -6.94591 110.34433 422 ft 154 kts 127°
2026-05-08 07:25 -6.95948 110.36007 126 ft 146 kts 128°
2026-05-08 07:26 -6.96596 110.36771 7 ft 137 kts 128°
2026-05-08 07:26 -6.97129 110.37403 3 ft 97 kts 130°
2026-05-08 07:26 -6.97466 110.37801 6 ft 53 kts 130°
2026-05-08 07:26 -6.97620 110.37983 5 ft 26 kts 130°
2026-05-08 07:27 -6.97676 110.38082 5 ft 0 kts 60°
2026-05-08 07:27 -6.97678 110.38088 5 ft 3 kts 108°
2026-05-08 07:27 -6.97698 110.38078 5 ft 6 kts 263°
2026-05-08 07:27 -6.97654 110.38054 6 ft 8 kts 314°
2026-05-08 07:28 -6.97625 110.37990 5 ft 13 kts 307°
2026-05-08 07:28 -6.97564 110.37917 5 ft 14 kts 310°
2026-05-08 07:28 -6.97503 110.37845 6 ft 13 kts 310°
2026-05-08 07:28 -6.97437 110.37768 5 ft 16 kts 310°
2026-05-08 07:29 -6.97366 110.37683 4 ft 16 kts 310°
2026-05-08 07:29 -6.97297 110.37601 4 ft 15 kts 310°
2026-05-08 07:29 -6.97251 110.37547 4 ft 15 kts 310°
2026-05-08 07:29 -6.97183 110.37468 3 ft 16 kts 311°
2026-05-08 07:30 -6.97086 110.37430 7 ft 17 kts 31°
2026-05-08 07:30 -6.96995 110.37504 16 ft 16 kts 40°
2026-05-08 07:30 -6.96909 110.37561 17 ft 13 kts 353°
2026-05-08 07:30 -6.96851 110.37497 17 ft 12 kts 309°
2026-05-08 07:31 -6.96797 110.37432 17 ft 12 kts 310°
2026-05-08 07:31 -6.96738 110.37435 18 ft 7 kts 40°
2026-05-08 07:31 -6.96717 110.37452 18 ft 1 kts 40°
2026-05-08 07:32 -6.96713 110.37456 18 ft 0 kts 40°